DLH726 EDDM-ZSPD

Flight info

Callsign DLH726
Flight time N/A
Altitude 35000
Route KIRDI2E KIRDI DCT BUWOQ DCT OBFEZ DCT STEIN DCT TEGRI/0464F370 DCT DINRO DCT UDROS DCT BAMUP UM859 KARDE UN644 FALAZ/N0479F390 UN644 ROLIN DCT TAGAR DCT BT DCT BARAD M747 SUBUT T916 LEYLA N644 NIJAT L88 METKA B476 TIMGA A480 OTBOR/K0900F390 N147 ELAHA Z621 ARBOL M610 RULAD/K0900S1250 A343 POSOT B215 FKG W188 LIKMI W270 DKO W69 HUR B339 SOTMU/K0876S1220 W98 ELKUR W40 DOXAB/K0880S1250 W40 YQG/K0872S1220 W142 DALIM/K0876S1250 A593 DPX A470 DALNU W166 ZJ W167 SASAN SAS82A
Aircraft A359/H-SADE2E3GHIJ1J2J3J4J5M1P2RWXYZ/LB1D1

Departure

Time 2026-04-30 07:40
Airport Munich Airport (EDDM)

Arrival

Time N/A
Airport Shanghai Pudong International Airport (ZSPD)
Time Latitude Longitude Altitude Speed Heading
2026-04-30 06:55 48.35356 11.79347 1492 ft 0 kts 263°
2026-04-30 07:27 48.35360 11.79382 1476 ft 4 kts 256°
2026-04-30 07:28 48.35368 11.79420 1476 ft 4 kts 243°
2026-04-30 07:28 48.35383 11.79452 1476 ft 4 kts 217°
2026-04-30 07:28 48.35402 11.79464 1476 ft 1 kts 174°
2026-04-30 07:31 48.35383 11.79467 1476 ft 10 kts 174°
2026-04-30 07:31 48.35288 11.79483 1479 ft 17 kts 174°
2026-04-30 07:32 48.35168 11.79503 1478 ft 18 kts 173°
2026-04-30 07:32 48.35045 11.79524 1480 ft 18 kts 173°
2026-04-30 07:32 48.34918 11.79545 1492 ft 19 kts 173°
2026-04-30 07:32 48.34797 11.79524 1476 ft 17 kts 231°
2026-04-30 07:33 48.34774 11.79354 1483 ft 17 kts 262°
2026-04-30 07:33 48.34760 11.79171 1488 ft 18 kts 264°
2026-04-30 07:33 48.34742 11.78934 1489 ft 26 kts 263°
2026-04-30 07:33 48.34722 11.78662 1479 ft 27 kts 263°
2026-04-30 07:34 48.34701 11.78383 1480 ft 27 kts 263°
2026-04-30 07:34 48.34680 11.78098 1483 ft 28 kts 263°
2026-04-30 07:34 48.34656 11.77804 1486 ft 29 kts 263°
2026-04-30 07:34 48.34633 11.77503 1482 ft 29 kts 263°
2026-04-30 07:35 48.34610 11.77199 1477 ft 30 kts 263°
2026-04-30 07:35 48.34590 11.76944 1478 ft 22 kts 263°
2026-04-30 07:35 48.34572 11.76705 1491 ft 23 kts 263°
2026-04-30 07:35 48.34553 11.76461 1478 ft 24 kts 263°
2026-04-30 07:36 48.34533 11.76203 1486 ft 25 kts 263°
2026-04-30 07:36 48.34512 11.75935 1482 ft 26 kts 263°
2026-04-30 07:36 48.34491 11.75658 1479 ft 27 kts 263°
2026-04-30 07:36 48.34469 11.75374 1487 ft 28 kts 263°
2026-04-30 07:37 48.34447 11.75081 1482 ft 28 kts 263°
2026-04-30 07:37 48.34352 11.74918 1480 ft 22 kts 185°
2026-04-30 07:37 48.34205 11.74949 1476 ft 21 kts 150°
2026-04-30 07:37 48.34108 11.75106 1476 ft 20 kts 120°
2026-04-30 07:38 48.34085 11.75300 1488 ft 17 kts 85°
2026-04-30 07:38 48.34086 11.75322 1491 ft 0 kts 85°
2026-04-30 07:39 48.34088 11.75353 1487 ft 15 kts 84°
2026-04-30 07:39 48.34125 11.75816 1482 ft 73 kts 83°
2026-04-30 07:39 48.34201 11.76833 1485 ft 122 kts 83°
2026-04-30 07:40 48.34301 11.78285 1713 ft 142 kts 85°
2026-04-30 07:40 48.34407 11.79754 2226 ft 144 kts 84°
2026-04-30 07:40 48.34527 11.81305 2693 ft 157 kts 84°
2026-04-30 07:40 48.34654 11.83055 2986 ft 179 kts 84°
2026-04-30 07:41 48.34795 11.84847 3385 ft 188 kts 85°
2026-04-30 07:41 48.34947 11.86795 4003 ft 187 kts 85°
2026-04-30 07:41 48.35100 11.88770 4461 ft 195 kts 84°
2026-04-30 07:41 48.35260 11.90827 4922 ft 200 kts 84°
2026-04-30 07:42 48.35318 11.92931 5357 ft 205 kts 95°
2026-04-30 07:42 48.34942 11.95036 5728 ft 216 kts 110°
2026-04-30 07:42 48.34318 11.97205 5943 ft 236 kts 113°
2026-04-30 07:42 48.33624 11.99499 6409 ft 245 kts 113°
2026-04-30 07:43 48.32915 12.01864 6996 ft 247 kts 113°
2026-04-30 07:43 48.32208 12.04236 7548 ft 252 kts 113°
2026-04-30 07:43 48.31483 12.06685 8027 ft 259 kts 113°
2026-04-30 07:43 48.30744 12.09181 8519 ft 266 kts 112°
2026-04-30 07:44 48.29986 12.11743 9050 ft 269 kts 112°
2026-04-30 07:44 48.29223 12.14330 9623 ft 274 kts 110°
2026-04-30 07:44 48.28447 12.16958 10241 ft 276 kts 111°
2026-04-30 07:44 48.27656 12.19631 10694 ft 282 kts 110°
2026-04-30 07:45 48.27116 12.21463 11032 ft 286 kts 111°
2026-04-30 07:45 48.26303 12.24199 11567 ft 289 kts 110°
2026-04-30 07:45 48.25485 12.26954 12129 ft 291 kts 109°
2026-04-30 07:45 48.24657 12.29741 12670 ft 294 kts 109°
2026-04-30 07:46 48.23849 12.32571 13182 ft 296 kts 106°
2026-04-30 07:46 48.23437 12.35585 13628 ft 298 kts 91°
2026-04-30 07:46 48.23363 12.38754 13882 ft 310 kts 88°
2026-04-30 07:46 48.23344 12.42052 14117 ft 323 kts 86°
2026-04-30 07:47 48.23320 12.45482 14327 ft 335 kts 88°
2026-04-30 07:47 48.23285 12.49047 14536 ft 347 kts 88°
2026-04-30 07:47 48.23243 12.52666 14776 ft 356 kts 88°
2026-04-30 07:47 48.23156 12.56455 15123 ft 362 kts 92°
2026-04-30 07:48 48.22864 12.60233 15534 ft 366 kts 94°
2026-04-30 07:48 48.22505 12.64027 16019 ft 368 kts 95°
2026-04-30 07:48 48.22141 12.67824 16484 ft 369 kts 95°
2026-04-30 07:48 48.21775 12.71654 16913 ft 372 kts 95°
2026-04-30 07:49 48.21409 12.75497 17355 ft 373 kts 95°
2026-04-30 07:49 48.21041 12.79354 17828 ft 374 kts 94°
2026-04-30 07:49 48.20798 12.83229 18267 ft 374 kts 89°
2026-04-30 07:49 48.20747 12.87131 18717 ft 374 kts 86°
2026-04-30 07:50 48.20792 12.91033 19085 ft 375 kts 85°
2026-04-30 07:50 48.20878 12.94954 19449 ft 377 kts 84°
2026-04-30 07:50 48.20973 12.98891 19797 ft 379 kts 84°
2026-04-30 07:50 48.21059 13.02852 20178 ft 381 kts 84°
2026-04-30 07:51 48.21132 13.06823 20547 ft 382 kts 85°
2026-04-30 07:51 48.21196 13.10818 20918 ft 384 kts 85°
2026-04-30 07:51 48.21252 13.14831 21290 ft 386 kts 85°
2026-04-30 07:51 48.21303 13.18858 21633 ft 387 kts 85°
2026-04-30 07:52 48.21352 13.22900 22009 ft 389 kts 85°
2026-04-30 07:52 48.21399 13.26910 22377 ft 390 kts 85°
2026-04-30 07:52 48.21446 13.30982 22736 ft 392 kts 85°
2026-04-30 07:52 48.21493 13.35082 23088 ft 394 kts 85°
2026-04-30 07:53 48.21538 13.39201 23441 ft 397 kts 85°
2026-04-30 07:53 48.21584 13.43359 23693 ft 401 kts 85°
2026-04-30 07:53 48.21628 13.47546 24046 ft 402 kts 85°
2026-04-30 07:53 48.21670 13.51746 24362 ft 403 kts 85°
2026-04-30 07:54 48.21709 13.55953 24678 ft 404 kts 85°
2026-04-30 07:54 48.21748 13.60169 25006 ft 405 kts 85°
2026-04-30 07:54 48.21785 13.64399 25331 ft 406 kts 85°
2026-04-30 07:54 48.21821 13.68633 25654 ft 407 kts 85°
2026-04-30 07:55 48.21855 13.72869 25978 ft 408 kts 84°
2026-04-30 07:55 48.21888 13.77132 26320 ft 409 kts 84°
2026-04-30 07:55 48.21920 13.81394 26672 ft 410 kts 84°
2026-04-30 07:55 48.21951 13.85684 26902 ft 414 kts 84°
2026-04-30 07:56 48.21981 13.90007 27209 ft 415 kts 85°
2026-04-30 07:56 48.21953 13.94348 27562 ft 418 kts 88°
2026-04-30 07:56 48.21587 13.98707 27892 ft 425 kts 96°
2026-04-30 07:56 48.20778 14.02996 28228 ft 432 kts 104°
2026-04-30 07:57 48.19690 14.07214 28585 ft 435 kts 106°
2026-04-30 07:57 48.18504 14.11400 28911 ft 438 kts 107°
2026-04-30 07:57 48.17267 14.15584 29238 ft 440 kts 108°
2026-04-30 07:57 48.16013 14.19766 29586 ft 441 kts 108°
2026-04-30 07:58 48.14752 14.23968 29927 ft 444 kts 108°
2026-04-30 07:58 48.13489 14.28206 30101 ft 448 kts 108°
2026-04-30 07:58 48.12223 14.32470 30430 ft 449 kts 108°
2026-04-30 07:58 48.10955 14.36750 30734 ft 450 kts 108°
2026-04-30 07:59 48.09684 14.41048 30955 ft 453 kts 108°
2026-04-30 07:59 48.08407 14.45366 31172 ft 455 kts 108°
2026-04-30 07:59 48.07123 14.49702 31405 ft 457 kts 108°
2026-04-30 08:00 48.04529 14.58432 31832 ft 462 kts 108°
2026-04-30 08:00 48.03218 14.62830 32028 ft 465 kts 108°
2026-04-30 08:00 48.01896 14.67260 32161 ft 469 kts 108°
2026-04-30 08:00 48.00564 14.71712 32357 ft 470 kts 109°
2026-04-30 08:01 47.99225 14.76175 32566 ft 472 kts 109°
2026-04-30 08:01 47.97882 14.80649 32743 ft 474 kts 109°
2026-04-30 08:01 47.96531 14.85139 32950 ft 475 kts 109°
2026-04-30 08:01 47.95174 14.89643 33150 ft 476 kts 109°
2026-04-30 08:02 47.92450 14.98652 33695 ft 476 kts 109°
2026-04-30 08:02 47.91078 15.03186 33694 ft 482 kts 109°
2026-04-30 08:03 47.88304 15.12317 34144 ft 483 kts 110°
2026-04-30 08:03 47.85522 15.21428 34600 ft 483 kts 110°
2026-04-30 08:03 47.84128 15.25986 34784 ft 484 kts 110°
2026-04-30 08:04 47.82730 15.30550 34951 ft 484 kts 110°
2026-04-30 08:04 47.81333 15.35104 35156 ft 485 kts 110°
2026-04-30 08:04 47.79938 15.39683 35277 ft 488 kts 110°
2026-04-30 08:04 47.78546 15.44293 35391 ft 489 kts 110°
2026-04-30 08:05 47.77172 15.48851 35576 ft 488 kts 110°
2026-04-30 08:05 47.75782 15.53454 35745 ft 489 kts 110°
2026-04-30 08:05 47.74387 15.58059 35901 ft 489 kts 110°
2026-04-30 08:05 47.72984 15.62668 36026 ft 490 kts 110°
2026-04-30 08:06 47.71578 15.67284 36206 ft 490 kts 110°
2026-04-30 08:06 47.70154 15.71953 36379 ft 491 kts 110°
2026-04-30 08:06 47.68742 15.76571 36528 ft 492 kts 111°
2026-04-30 08:07 47.65914 15.85784 36792 ft 494 kts 111°
2026-04-30 08:07 47.64486 15.90420 36966 ft 494 kts 111°
2026-04-30 08:07 47.63059 15.95046 37128 ft 494 kts 111°
2026-04-30 08:07 47.61627 15.99683 37281 ft 494 kts 111°
2026-04-30 08:08 47.60193 16.04314 37391 ft 495 kts 111°
2026-04-30 08:08 47.57306 16.13624 37445 ft 501 kts 111°
2026-04-30 08:09 47.54381 16.23016 37443 ft 502 kts 111°
2026-04-30 08:09 47.51452 16.32380 37445 ft 502 kts 111°
2026-04-30 08:10 47.48513 16.41743 37445 ft 502 kts 111°
2026-04-30 08:10 47.45569 16.51089 37444 ft 501 kts 111°
2026-04-30 08:11 47.42716 16.60482 37445 ft 500 kts 107°
2026-04-30 08:11 47.40356 16.70141 37441 ft 500 kts 106°
2026-04-30 08:12 47.38075 16.79848 37440 ft 500 kts 106°
2026-04-30 08:12 47.35799 16.89547 37444 ft 501 kts 106°
2026-04-30 08:13 47.33501 16.99255 37430 ft 502 kts 107°
2026-04-30 08:13 47.31190 17.08949 37429 ft 502 kts 107°
2026-04-30 08:14 47.28867 17.18642 37426 ft 502 kts 107°
2026-04-30 08:14 47.26537 17.28328 37432 ft 503 kts 107°
2026-04-30 08:15 47.24190 17.38041 37426 ft 503 kts 107°
2026-04-30 08:15 47.21838 17.47735 37425 ft 503 kts 107°
2026-04-30 08:16 47.19476 17.57427 37423 ft 503 kts 107°
2026-04-30 08:16 47.17118 17.67060 37423 ft 505 kts 108°
2026-04-30 08:17 47.14708 17.76864 37416 ft 507 kts 108°
2026-04-30 08:17 47.12322 17.86522 37392 ft 507 kts 108°
2026-04-30 08:18 47.09910 17.96248 37410 ft 507 kts 108°
2026-04-30 08:18 47.07489 18.05967 37400 ft 508 kts 108°
2026-04-30 08:19 47.05055 18.15700 37398 ft 509 kts 108°
2026-04-30 08:19 47.02611 18.25430 37395 ft 509 kts 108°
2026-04-30 08:20 47.00159 18.35148 37412 ft 509 kts 108°
2026-04-30 08:20 46.97688 18.44900 37393 ft 511 kts 108°
2026-04-30 08:21 46.95203 18.54666 37391 ft 512 kts 108°
2026-04-30 08:21 46.92710 18.64422 37385 ft 512 kts 108°
2026-04-30 08:22 46.90208 18.74171 37387 ft 512 kts 108°
2026-04-30 08:22 46.87696 18.83920 37382 ft 513 kts 108°
2026-04-30 08:23 46.85171 18.93677 37376 ft 513 kts 108°
2026-04-30 08:23 46.82636 19.03432 37378 ft 515 kts 109°
2026-04-30 08:24 46.80081 19.13221 37376 ft 516 kts 109°
2026-04-30 08:24 46.77533 19.22944 37366 ft 516 kts 109°
2026-04-30 08:25 46.74960 19.32720 37365 ft 516 kts 109°
2026-04-30 08:25 46.72379 19.42484 37366 ft 516 kts 109°
2026-04-30 08:26 46.69786 19.52254 37361 ft 517 kts 109°
2026-04-30 08:26 46.67181 19.62028 37361 ft 518 kts 109°
2026-04-30 08:27 46.64569 19.71789 37362 ft 518 kts 109°
2026-04-30 08:27 46.61947 19.81546 37367 ft 518 kts 109°
2026-04-30 08:28 46.59315 19.91300 37355 ft 518 kts 110°
2026-04-30 08:28 46.56677 20.01036 37354 ft 518 kts 110°
2026-04-30 08:29 46.54028 20.10772 37346 ft 518 kts 110°
2026-04-30 08:29 46.51375 20.20484 37348 ft 518 kts 110°
2026-04-30 08:30 46.48711 20.30196 37342 ft 518 kts 110°
2026-04-30 08:30 46.46038 20.39900 37340 ft 518 kts 110°
2026-04-30 08:31 46.43358 20.49593 37342 ft 518 kts 110°
2026-04-30 08:31 46.41124 20.57643 37328 ft 518 kts 110°
2026-04-30 08:32 46.38426 20.67327 37317 ft 518 kts 110°
2026-04-30 08:32 46.35721 20.76999 37337 ft 518 kts 110°
2026-04-30 08:33 46.33007 20.86664 37341 ft 518 kts 111°
2026-04-30 08:33 46.30284 20.96324 37315 ft 519 kts 111°
2026-04-30 08:34 46.27549 21.05986 37316 ft 519 kts 111°
2026-04-30 08:34 46.24806 21.15633 37319 ft 519 kts 111°
2026-04-30 08:35 46.22046 21.25267 37322 ft 519 kts 111°
2026-04-30 08:35 46.19273 21.34893 37307 ft 520 kts 112°
2026-04-30 08:36 46.16487 21.44536 37311 ft 521 kts 112°
2026-04-30 08:36 46.13691 21.54181 37300 ft 521 kts 112°
2026-04-30 08:37 46.10886 21.63819 37273 ft 522 kts 112°
2026-04-30 08:37 46.08066 21.73470 37272 ft 523 kts 112°
2026-04-30 08:38 46.05240 21.83107 37268 ft 523 kts 112°
2026-04-30 08:38 46.02401 21.92747 37269 ft 523 kts 113°
2026-04-30 08:39 45.99556 22.02373 37266 ft 523 kts 113°
2026-04-30 08:39 45.96697 22.12006 37259 ft 523 kts 113°
2026-04-30 08:40 45.93832 22.21622 37257 ft 523 kts 113°
2026-04-30 08:40 45.90959 22.31229 37258 ft 524 kts 114°
2026-04-30 08:41 45.88069 22.40857 37257 ft 526 kts 114°
2026-04-30 08:41 45.85167 22.50485 37259 ft 526 kts 114°
2026-04-30 08:42 45.82258 22.60104 37264 ft 526 kts 114°
2026-04-30 08:42 45.79338 22.69721 37259 ft 527 kts 114°
2026-04-30 08:43 45.76404 22.79345 37262 ft 527 kts 114°
2026-04-30 08:43 45.73465 22.88951 37259 ft 527 kts 114°